Regional Weather Roundup
Issued by NWS

Home | Current Version | Previous Version | Text Only | Print | Product List | Glossary On
Versions: 1 2 3 4 5 6 7 8 9 10 11 12 13 14 15 16 17 18 19 20 21 22 23 24 25 26 27 28 29 30 31 32 33 34 35 36 37 38 39 40 41 42 43 44 45 46 47 48 49 50
000
ASUS44 KMEG 281310
RWRTN
TENNESSEE HOURLY STATE WEATHER ROUNDUP
NATIONAL WEATHER SERVICE MEMPHIS TN
700 AM CST TUE FEB 28 2017

TNZ002-004-019-021-049-052-054-088>092-281400-
WEST TENNESSEE

CITY           SKY/WX    TMP DP  RH WIND       PRES   REMARKS
MEMPHIS INTL   CLOUDY    64  62  93 S15       30.01S
NWS MEMPHIS      N/A     63 N/A N/A MISG        N/A
JACKSON        CLOUDY    61  60  97 S9G18     30.03F
UNION CITY     CLOUDY   N/A N/A N/A S15       29.98R
PARIS          CLOUDY    57  55  94 S13       30.02R
HUNTINGDON     CLOUDY    61  59  94 S14       30.02S
$$

TNZ008-025-027-028-033-062-065-066-281400-
NORTH MIDDLE TENNESSEE

CITY           SKY/WX    TMP DP  RH WIND       PRES   REMARKS
NASHVILLE      CLOUDY    58  52  80 S16       30.09F
PORTLAND       CLOUDY    55  52  88 S15G21    30.08F
CLARKSVILLE    CLOUDY    60  56  86 S16       30.03S
SMYRNA         CLOUDY    57  53  86 S9        30.11F
COOKEVILLE     MOCLDY    55  52  88 S6        30.14R
GALLATIN       CLOUDY    55  52  88 S9        30.13F
CROSSVILLE     CLOUDY    52  50  93 S10G18    30.18S
$$

TNZ061-075-076-078-094-096-097-281400-
SOUTH MIDDLE TENNESSEE

CITY           SKY/WX    TMP DP  RH WIND       PRES   REMARKS
FAYETTEVILLE   CLOUDY    55  55 100 S12G18    30.15S
TULLAHOMA      CLOUDY    54  52  94 S10       30.15S
WINCHESTER     CLOUDY    55  54  94 S15       30.17F
MCMINNVILLE    PTCLDY    57  55  94 S5        30.15R
COLUMBIA       CLOUDY   N/A N/A N/A S13       30.08S
SHELBYVILLE    CLOUDY    57  55  94 S12       30.14S
$$

TNZ017-018-042-046-047-281400-
NORTHEAST TENNESSEE

CITY           SKY/WX    TMP DP  RH WIND       PRES   REMARKS
TRI CITIES     MOSUNNY   42  37  82 N3        30.24S
ELIZABETHTON   MOSUNNY   46  39  76 E5        30.24F
$$

TNZ012-013-036-069-073-074-281400-
CENTRAL EAST TENNESSEE

CITY           SKY/WX    TMP DP  RH WIND       PRES   REMARKS
KNOXVILLE      CLOUDY    41  37  86 CALM      30.22S
OAK RIDGE      CLOUDY    46  41  82 CALM      30.23F
DOWNTOWN KNOXV CLEAR     41  39  93 CALM      30.24S
GATLINBURG     SUNNY     34  32  93 CALM      30.24R
MORRISTOWN     SUNNY     39  37  93 CALM      30.22S
JACKSBORO      MOCLDY    41  39  93 NE5       30.22S
$$

TNZ083-085-099-281400-
SOUTHEAST TENNESSEE

CITY           SKY/WX    TMP DP  RH WIND       PRES   REMARKS
CHATTANOOGA    CLOUDY    53  50  89 S6        30.23S FOG
$$

SKY/WX REPORTED AS FAIR MEANS FEW OR NO CLOUDS BELOW
12 THOUSAND FEET.





USA.gov is the U.S. government's official web portal to all federal, state and local government web resources and services.